• In Uzbekistan
  • List of Countries
  • For 7 days
  • Water Temperature
  • Satellite Maps
  • Weather Map
  • Weather Widgets
  • user-avatar
    Login

    Hourly Weather Santiago del Estero

    Today, 6 December, Tuesday

    Time Temperature Precipitation Wind Pressure Humidity
    00:00 +27°C° 2.5 mm 3 mps 738 mmHg 79%
    01:00 +26°C° 2.5 mm 3 mps 738 mmHg 84%
    02:00 +26°C° 2.5 mm 3 mps 738 mmHg 88%
    03:00 +25°C° 0.7 mm 4 mps 738 mmHg 89%
    04:00 +25°C° 0.7 mm 5 mps 739 mmHg 90%
    05:00 +24°C° 0.7 mm 6 mps 739 mmHg 91%
    06:00 +24°C° 0.3 mm 6 mps 740 mmHg 87%
    07:00 +24°C° 0.3 mm 6 mps 740 mmHg 84%
    08:00 +25°C° 0.3 mm 5 mps 741 mmHg 81%
    09:00 +26°C° 0.6 mm 5 mps 741 mmHg 76%
    10:00 +27°C° 0.6 mm 4 mps 741 mmHg 71%
    11:00 +29°C° 0.6 mm 4 mps 741 mmHg 66%
    12:00 +30°C° 0.1 mm 3 mps 740 mmHg 62%
    13:00 +31°C° 0.1 mm 3 mps 740 mmHg 57%
    14:00 +34°C° 0.1 mm 2 mps 739 mmHg 53%
    15:00 +34°C° 0 mm 2 mps 738 mmHg 52%
    16:00 +34°C° 0 mm 2 mps 738 mmHg 50%
    17:00 +35°C° 0 mm 2 mps 737 mmHg 49%
    18:00 +32°C° 0 mm 2 mps 737 mmHg 54%
    19:00 +31°C° 0 mm 1 mps 737 mmHg 59%
    20:00 +30°C° 0 mm 1 mps 737 mmHg 63%
    21:00 +29°C° 0 mm 1 mps 737 mmHg 65%
    22:00 +29°C° 0 mm 1 mps 737 mmHg 67%
    23:00 +28°C° 0 mm 2 mps 738 mmHg 68%

    Tomorrow, 7 December, Wednesday

    Time Temperature Precipitation Wind Pressure Humidity
    00:00 +28°C° 0.5 mm 2 mps 737 mmHg 72%
    01:00 +27°C° 0.5 mm 2 mps 737 mmHg 75%
    02:00 +27°C° 0.5 mm 2 mps 737 mmHg 78%
    03:00 +26°C° 0.6 mm 3 mps 737 mmHg 82%
    04:00 +26°C° 0.6 mm 3 mps 737 mmHg 85%
    05:00 +25°C° 0.6 mm 3 mps 736 mmHg 89%
    06:00 +26°C° 0.4 mm 3 mps 737 mmHg 84%
    07:00 +27°C° 0.4 mm 3 mps 737 mmHg 79%
    08:00 +28°C° 0.4 mm 2 mps 738 mmHg 75%
    09:00 +30°C° 0.1 mm 3 mps 738 mmHg 68%
    10:00 +33°C° 0.1 mm 3 mps 738 mmHg 62%
    11:00 +34°C° 0.1 mm 3 mps 738 mmHg 55%
    12:00 +35°C° 0.8 mm 3 mps 737 mmHg 55%
    13:00 +35°C° 0.8 mm 4 mps 736 mmHg 55%
    14:00 +35°C° 0.8 mm 4 mps 735 mmHg 54%
    15:00 +35°C° 0.4 mm 4 mps 735 mmHg 54%
    16:00 +35°C° 0.4 mm 4 mps 735 mmHg 55%
    17:00 +35°C° 0.4 mm 4 mps 734 mmHg 55%
    18:00 +33°C° 1.5 mm 3 mps 735 mmHg 65%
    19:00 +30°C° 1.5 mm 3 mps 735 mmHg 74%
    20:00 +28°C° 1.5 mm 2 mps 736 mmHg 84%
    21:00 +28°C° 1.1 mm 1 mps 736 mmHg 85%
    22:00 +28°C° 1.1 mm 1 mps 736 mmHg 85%
    23:00 +28°C° 1.1 mm 1 mps 737 mmHg 85%

    Day after tomorrow, 8 December, Thursday

    Time Temperature Precipitation Wind Pressure Humidity
    00:00 +27°C° 1.5 mm 1 mps 736 mmHg 86%
    01:00 +27°C° 1.5 mm 2 mps 736 mmHg 87%
    02:00 +26°C° 1.5 mm 3 mps 736 mmHg 89%
    03:00 +26°C° 0.4 mm 3 mps 736 mmHg 90%
    04:00 +25°C° 0.4 mm 3 mps 737 mmHg 92%
    05:00 +24°C° 0.4 mm 3 mps 737 mmHg 94%
    06:00 +25°C° 0.6 mm 4 mps 738 mmHg 87%
    07:00 +26°C° 0.6 mm 5 mps 739 mmHg 81%
    08:00 +27°C° 0.6 mm 5 mps 739 mmHg 74%
    09:00 +27°C° 1.9 mm 6 mps 740 mmHg 74%
    10:00 +28°C° 1.9 mm 7 mps 741 mmHg 74%
    11:00 +28°C° 1.9 mm 8 mps 741 mmHg 74%
    12:00 +27°C° 0.6 mm 8 mps 741 mmHg 71%
    13:00 +27°C° 0.6 mm 9 mps 741 mmHg 69%
    14:00 +26°C° 0.6 mm 9 mps 741 mmHg 66%
    15:00 +26°C° 0.1 mm 9 mps 740 mmHg 64%
    16:00 +26°C° 0.1 mm 8 mps 740 mmHg 61%
    17:00 +27°C° 0.1 mm 8 mps 740 mmHg 59%
    18:00 +24°C° 0.3 mm 7 mps 741 mmHg 65%
    19:00 +23°C° 0.3 mm 6 mps 741 mmHg 72%
    20:00 +22°C° 0.3 mm 4 mps 742 mmHg 79%
    21:00 +21°C° 0.5 mm 4 mps 742 mmHg 81%
    22:00 +21°C° 0.5 mm 4 mps 742 mmHg 83%
    23:00 +21°C° 0.5 mm 4 mps 742 mmHg 85%

    9 December, Friday

    Time Temperature Precipitation Wind Pressure Humidity
    00:00 +21°C° 0.3 mm 4 mps 742 mmHg 85%
    01:00 +21°C° 0.3 mm 4 mps 741 mmHg 86%
    02:00 +20°C° 0.3 mm 4 mps 741 mmHg 87%
    03:00 +20°C° 0.2 mm 4 mps 741 mmHg 87%
    04:00 +20°C° 0.2 mm 4 mps 741 mmHg 88%
    05:00 +20°C° 0.2 mm 4 mps 741 mmHg 89%
    06:00 +20°C° 0.8 mm 4 mps 742 mmHg 88%
    07:00 +20°C° 0.8 mm 4 mps 742 mmHg 88%
    08:00 +20°C° 0.8 mm 4 mps 742 mmHg 87%
    09:00 +20°C° 0.7 mm 4 mps 742 mmHg 87%
    10:00 +21°C° 0.7 mm 4 mps 742 mmHg 86%
    11:00 +21°C° 0.7 mm 4 mps 742 mmHg 85%
    12:00 +21°C° 0.3 mm 4 mps 742 mmHg 83%
    13:00 +22°C° 0.3 mm 5 mps 741 mmHg 80%
    14:00 +22°C° 0.3 mm 5 mps 741 mmHg 77%
    15:00 +23°C° 0 mm 5 mps 740 mmHg 75%
    16:00 +23°C° 0 mm 5 mps 740 mmHg 73%
    17:00 +23°C° 0 mm 5 mps 739 mmHg 71%
    18:00 +22°C° 0 mm 5 mps 740 mmHg 74%
    19:00 +21°C° 0 mm 5 mps 740 mmHg 76%
    20:00 +21°C° 0 mm 4 mps 741 mmHg 78%
    21:00 +20°C° 0 mm 4 mps 741 mmHg 79%
    22:00 +20°C° 0 mm 3 mps 741 mmHg 79%
    23:00 +20°C° 0 mm 3 mps 742 mmHg 80%

    10 December, Saturday

    Time Temperature Precipitation Wind Pressure Humidity
    00:00 +19°C° 0 mm 3 mps 741 mmHg 81%
    01:00 +19°C° 0 mm 3 mps 741 mmHg 82%
    02:00 +19°C° 0 mm 3 mps 741 mmHg 83%
    03:00 +18°C° 0 mm 3 mps 741 mmHg 83%
    04:00 +18°C° 0 mm 3 mps 741 mmHg 84%
    05:00 +18°C° 0 mm 3 mps 741 mmHg 84%
    06:00 +20°C° 0 mm 3 mps 741 mmHg 76%
    07:00 +22°C° 0 mm 3 mps 742 mmHg 69%
    08:00 +23°C° 0 mm 4 mps 742 mmHg 61%
    09:00 +26°C° 0.1 mm 3 mps 742 mmHg 55%
    10:00 +28°C° 0.1 mm 3 mps 741 mmHg 49%
    11:00 +30°C° 0.1 mm 3 mps 741 mmHg 43%
    12:00 +31°C° 0 mm 2 mps 741 mmHg 39%
    13:00 +32°C° 0 mm 2 mps 740 mmHg 36%
    14:00 +34°C° 0 mm 2 mps 739 mmHg 33%
    15:00 +34°C° 0 mm 2 mps 739 mmHg 33%
    16:00 +34°C° 0 mm 2 mps 738 mmHg 33%
    17:00 +34°C° 0 mm 2 mps 737 mmHg 33%
    18:00 +31°C° 0 mm 2 mps 738 mmHg 39%
    19:00 +29°C° 0 mm 2 mps 738 mmHg 45%
    20:00 +26°C° 0 mm 1 mps 738 mmHg 51%
    21:00 +26°C° 0 mm 1 mps 739 mmHg 52%
    22:00 +26°C° 0 mm 1 mps 739 mmHg 53%
    23:00 +25°C° 0 mm 1 mps 739 mmHg 54%

    11 December, Sunday

    Time Temperature Precipitation Wind Pressure Humidity
    00:00 +25°C° 0 mm 2 mps 739 mmHg 55%
    01:00 +25°C° 0 mm 2 mps 738 mmHg 55%
    02:00 +25°C° 0 mm 3 mps 738 mmHg 56%
    03:00 +25°C° 0 mm 2 mps 738 mmHg 58%
    04:00 +24°C° 0 mm 2 mps 738 mmHg 60%
    05:00 +24°C° 0 mm 2 mps 739 mmHg 61%
    06:00 +26°C° 0 mm 2 mps 739 mmHg 56%
    07:00 +28°C° 0 mm 3 mps 740 mmHg 50%
    08:00 +31°C° 0 mm 3 mps 740 mmHg 45%
    09:00 +33°C° 0 mm 4 mps 740 mmHg 39%
    10:00 +35°C° 0 mm 5 mps 741 mmHg 34%
    11:00 +38°C° 0 mm 6 mps 741 mmHg 29%
    12:00 +38°C° 0 mm 6 mps 740 mmHg 27%
    13:00 +39°C° 0 mm 6 mps 740 mmHg 25%
    14:00 +39°C° 0 mm 6 mps 739 mmHg 23%
    15:00 +39°C° 0 mm 5 mps 739 mmHg 24%
    16:00 +37°C° 0 mm 5 mps 738 mmHg 25%
    17:00 +37°C° 0 mm 4 mps 738 mmHg 25%
    18:00 +35°C° 0 mm 3 mps 738 mmHg 30%
    19:00 +31°C° 0 mm 2 mps 739 mmHg 34%
    20:00 +29°C° 0 mm 1 mps 739 mmHg 39%
    21:00 +29°C° 0 mm 1 mps 739 mmHg 40%
    22:00 +28°C° 0 mm 2 mps 739 mmHg 42%
    23:00 +27°C° 0 mm 2 mps 739 mmHg 44%
    Show more